| time (UTC) | temp F | wind direction | speed knots | gust knots | rain 1hr in | rain 24hr in | rain mn in | humidity % | barometer mb |
| 20260507180558 | 64 | 273 | 1.7 | 4.3 | 0.00 | 0.12 | 0.11 | 38 | 1010.4 |
| 20260507180059 | 64 | 218 | 0.9 | 6.1 | 0.00 | 0.12 | 0.11 | 39 | 1010.4 |
| 20260507175558 | 64 | 300 | 1.7 | 7.0 | 0.00 | 0.12 | 0.11 | 39 | 1010.5 |
| 20260507175057 | 64 | 217 | 3.5 | 7.0 | 0.00 | 0.12 | 0.11 | 38 | 1010.4 |
| 20260507174603 | 63 | 0 | 1.7 | 4.3 | 0.00 | 0.12 | 0.11 | 37 | 1010.3 |
| 20260507174057 | 63 | 0 | 1.7 | 6.1 | 0.00 | 0.12 | 0.11 | 37 | 1010.3 |
| 20260507173557 | 63 | 236 | 0.0 | 8.7 | 0.00 | 0.12 | 0.11 | 39 | 1010.4 |
| 20260507173105 | 63 | 215 | 2.6 | 10.4 | 0.00 | 0.12 | 0.11 | 41 | 1010.5 |
| 20260507172557 | 63 | 251 | 2.6 | 10.4 | 0.00 | 0.12 | 0.11 | 39 | 1010.4 |
| 20260507172058 | 63 | 303 | 2.6 | 7.8 | 0.00 | 0.12 | 0.11 | 42 | 1010.6 |
| 20260507171557 | 63 | 224 | 1.7 | 8.7 | 0.00 | 0.12 | 0.11 | 43 | 1010.6 |
| 20260507171056 | 63 | 291 | 0.9 | 8.7 | 0.00 | 0.12 | 0.11 | 47 | 1010.6 |
| 20260507170556 | 63 | 241 | 2.6 | 8.7 | 0.00 | 0.12 | 0.11 | 43 | 1010.5 |
| 20260507170058 | 63 | 204 | 0.9 | 8.7 | 0.00 | 0.12 | 0.11 | 46 | 1010.3 |
| 20260507165557 | 62 | 217 | 2.6 | 7.8 | 0.00 | 0.12 | 0.11 | 43 | 1010.7 |
| 20260507165100 | 62 | 166 | 2.6 | 7.8 | 0.00 | 0.12 | 0.11 | 46 | 1010.6 |
| 20260507164630 | 61 | 259 | 1.7 | 6.1 | 0.00 | 0.12 | 0.11 | 48 | 1010.9 |
| 20260507164057 | 61 | 284 | 0.9 | 7.0 | 0.00 | 0.12 | 0.11 | 50 | 1010.9 |
| 20260507163557 | 61 | 262 | 1.7 | 7.0 | 0.00 | 0.12 | 0.11 | 52 | 1011.0 |
| 20260507163059 | 60 | 237 | 1.7 | 8.7 | 0.00 | 0.12 | 0.11 | 50 | 1010.9 |
| 20260507162558 | 60 | 276 | 0.9 | 8.7 | 0.00 | 0.12 | 0.11 | 55 | 1011.0 |
| 20260507162056 | 60 | 231 | 0.9 | 8.7 | 0.00 | 0.12 | 0.11 | 56 | 1011.1 |
| 20260507161604 | 60 | 190 | 0.9 | 2.6 | 0.00 | 0.12 | 0.11 | 56 | 1011.2 |
| 20260507161058 | 60 | 202 | 0.0 | 7.8 | 0.00 | 0.12 | 0.11 | 56 | 1011.2 |
| 20260507160557 | 59 | 0 | 0.9 | 7.8 | 0.00 | 0.12 | 0.11 | 53 | 1011.2 |
| 20260507160058 | 59 | 313 | 1.7 | 7.8 | 0.00 | 0.12 | 0.11 | 54 | 1011.3 |
| 20260507155558 | 59 | 217 | 0.9 | 7.0 | 0.00 | 0.12 | 0.11 | 55 | 1011.3 |
| 20260507155056 | 59 | 342 | 1.7 | 7.0 | 0.00 | 0.12 | 0.11 | 58 | 1011.3 |
| 20260507154558 | 59 | 19 | 0.9 | 5.2 | 0.00 | 0.12 | 0.11 | 57 | 1011.4 |
| 20260507154056 | 59 | 236 | 0.0 | 5.2 | 0.00 | 0.12 | 0.11 | 57 | 1011.4 |
| 20260507153557 | 59 | 236 | 0.9 | 5.2 | 0.00 | 0.12 | 0.11 | 58 | 1011.5 |
| 20260507153058 | 59 | 248 | 0.0 | 3.5 | 0.00 | 0.12 | 0.11 | 56 | 1011.6 |
| 20260507152559 | 59 | 192 | 0.9 | 3.5 | 0.00 | 0.12 | 0.11 | 60 | 1011.5 |
| 20260507152059 | 59 | 0 | 0.0 | 3.5 | 0.00 | 0.12 | 0.11 | 60 | 1011.5 |
| 20260507151601 | 59 | 0 | 0.9 | 3.5 | 0.00 | 0.12 | 0.11 | 58 | 1011.6 |
| 20260507151057 | 59 | 0 | 0.0 | 1.7 | 0.00 | 0.12 | 0.11 | 62 | 1011.6 |
| 20260507150557 | 58 | 0 | 0.0 | 7.0 | 0.00 | 0.12 | 0.11 | 62 | 1011.7 |
| 20260507150056 | 58 | 0 | 0.9 | 7.0 | 0.00 | 0.12 | 0.11 | 63 | 1011.7 |
| 20260507145557 | 58 | 233 | 1.7 | 7.0 | 0.00 | 0.12 | 0.11 | 61 | 1011.8 |
| 20260507145059 | 57 | 0 | 0.0 | 2.6 | 0.00 | 0.12 | 0.11 | 62 | 1011.8 |
| 20260507144601 | 57 | 0 | 0.0 | 2.6 | 0.00 | 0.12 | 0.11 | 62 | 1011.8 |
| 20260507144057 | 57 | 264 | 0.0 | 2.6 | 0.00 | 0.12 | 0.11 | 63 | 1011.9 |
| 20260507143556 | 57 | 259 | 0.0 | 5.2 | 0.00 | 0.12 | 0.11 | 64 | 1011.9 |
| 20260507143109 | 57 | 261 | 0.0 | 5.2 | 0.00 | 0.12 | 0.11 | 63 | 1011.9 |
| 20260507142556 | 56 | 267 | 0.9 | 3.5 | 0.00 | 0.12 | 0.11 | 63 | 1012.0 |
| 20260507142056 | 56 | 352 | 0.0 | 2.6 | 0.00 | 0.12 | 0.11 | 62 | 1012.0 |
| 20260507141558 | 56 | 0 | 0.0 | 3.5 | 0.00 | 0.12 | 0.11 | 65 | 1012.0 |
| 20260507141056 | 56 | 0 | 0.9 | 3.5 | 0.00 | 0.12 | 0.11 | 66 | 1011.9 |
| 20260507140557 | 55 | 0 | 0.9 | 2.6 | 0.00 | 0.12 | 0.11 | 68 | 1012.0 |
| 20260507140057 | 55 | 0 | 0.0 | 5.2 | 0.00 | 0.12 | 0.11 | 72 | 1012.1 |
| 20260507135556 | 55 | 263 | 0.9 | 5.2 | 0.00 | 0.12 | 0.11 | 71 | 1012.1 |
| 20260507135057 | 55 | 219 | 0.9 | 3.5 | 0.00 | 0.12 | 0.11 | 73 | 1012.0 |
| 20260507134558 | 54 | 0 | 0.0 | 2.6 | 0.00 | 0.12 | 0.11 | 75 | 1012.1 |
| 20260507134057 | 54 | 0 | 0.0 | 3.5 | 0.00 | 0.12 | 0.11 | 77 | 1012.0 |
| 20260507133557 | 54 | 207 | 0.0 | 3.5 | 0.00 | 0.12 | 0.11 | 79 | 1012.1 |
| 20260507133056 | 53 | 192 | 0.9 | 3.5 | 0.00 | 0.12 | 0.11 | 80 | 1012.0 |
| 20260507132556 | 53 | 0 | 0.9 | 4.3 | 0.00 | 0.12 | 0.11 | 80 | 1011.9 |
| 20260507132058 | 53 | 281 | 0.9 | 4.3 | 0.00 | 0.12 | 0.11 | 83 | 1011.9 |
| 20260507131607 | 52 | 0 | 0.0 | 5.2 | 0.00 | 0.12 | 0.11 | 85 | 1012.0 |
| 20260507131101 | 52 | 0 | 0.9 | 5.2 | 0.00 | 0.12 | 0.11 | 86 | 1012.1 |
| 20260507130556 | 52 | 271 | 0.9 | 3.5 | 0.00 | 0.12 | 0.11 | 87 | 1012.1 |
| 20260507130057 | 51 | 0 | 0.0 | 5.2 | 0.00 | 0.12 | 0.11 | 87 | 1012.1 |
| 20260507125556 | 51 | 257 | 0.9 | 5.2 | 0.00 | 0.12 | 0.11 | 87 | 1012.2 |
| 20260507125057 | 51 | 281 | 0.9 | 5.2 | 0.00 | 0.12 | 0.11 | 89 | 1012.2 |
| 20260507124604 | 51 | 242 | 0.0 | 3.5 | 0.00 | 0.12 | 0.11 | 90 | 1012.1 |
| 20260507124056 | 51 | 259 | 0.0 | 1.7 | 0.00 | 0.12 | 0.11 | 91 | 1012.3 |
| 20260507123556 | 50 | 0 | 0.0 | 1.7 | 0.00 | 0.12 | 0.11 | 91 | 1012.4 |
| 20260507123100 | 50 | 309 | 0.0 | 1.7 | 0.00 | 0.12 | 0.11 | 91 | 1012.5 |
| 20260507122555 | 50 | 0 | 0.0 | 2.6 | 0.00 | 0.12 | 0.11 | 91 | 1012.5 |
| 20260507122057 | 50 | 311 | 0.9 | 2.6 | 0.00 | 0.12 | 0.11 | 91 | 1012.5 |
| 20260507121557 | 50 | 0 | 0.0 | 0.0 | 0.00 | 0.12 | 0.11 | 91 | 1012.3 |
| 20260507121057 | 50 | 0 | 0.0 | 0.9 | 0.00 | 0.12 | 0.11 | 91 | 1012.2 |
| 20260507120556 | 49 | 0 | 0.0 | 0.9 | 0.00 | 0.12 | 0.11 | 92 | 1012.2 |
| 20260507120059 | 49 | 0 | 0.0 | 0.0 | 0.00 | 0.12 | 0.11 | 91 | 1012.3 |
| 20260507115557 | 49 | 0 | 0.0 | 0.0 | 0.01 | 0.12 | 0.11 | 91 | 1012.1 |
| 20260507115059 | 49 | 0 | 0.0 | 1.7 | 0.01 | 0.12 | 0.11 | 91 | 1012.1 |
| 20260507114608 | 49 | 0 | 0.0 | 1.7 | 0.01 | 0.12 | 0.11 | 91 | 1012.2 |
| 20260507114056 | 49 | 0 | 0.0 | 1.7 | 0.01 | 0.12 | 0.11 | 91 | 1012.3 |
| 20260507113559 | 49 | 0 | 0.0 | 1.7 | 0.01 | 0.12 | 0.11 | 91 | 1012.1 |
| 20260507113130 | 49 | 0 | 0.0 | 0.9 | 0.01 | 0.12 | 0.11 | 91 | 1012.3 |
| 20260507112556 | 49 | 0 | 0.0 | 0.0 | 0.01 | 0.12 | 0.11 | 91 | 1012.0 |
| 20260507112056 | 49 | 0 | 0.0 | 0.0 | 0.02 | 0.12 | 0.11 | 91 | 1012.0 |
| 20260507111607 | 49 | 0 | 0.0 | 0.0 | 0.02 | 0.12 | 0.11 | 91 | 1011.9 |
| 20260507111056 | 49 | 0 | 0.0 | 0.0 | 0.02 | 0.12 | 0.11 | 91 | 1011.9 |
| 20260507110556 | 49 | 0 | 0.0 | 0.0 | 0.02 | 0.12 | 0.11 | 91 | 1011.9 |
| 20260507110105 | 49 | 0 | 0.0 | 0.0 | 0.02 | 0.12 | 0.11 | 90 | 1011.8 |
| 20260507105557 | 49 | 0 | 0.0 | 0.0 | 0.01 | 0.11 | 0.10 | 91 | 1011.9 |
| 20260507105057 | 49 | 0 | 0.0 | 0.0 | 0.01 | 0.11 | 0.10 | 90 | 1011.9 |
| 20260507104600 | 49 | 0 | 0.0 | 0.0 | 0.02 | 0.11 | 0.10 | 90 | 1011.7 |
| 20260507104056 | 49 | 0 | 0.0 | 0.0 | 0.02 | 0.11 | 0.10 | 90 | 1012.0 |
| 20260507103557 | 49 | 0 | 0.0 | 0.0 | 0.02 | 0.11 | 0.10 | 90 | 1012.0 |
| 20260507103058 | 49 | 0 | 0.0 | 0.0 | 0.02 | 0.11 | 0.10 | 90 | 1012.3 |
| 20260507102556 | 49 | 0 | 0.0 | 0.0 | 0.02 | 0.11 | 0.10 | 90 | 1012.5 |
| 20260507102059 | 49 | 0 | 0.0 | 0.0 | 0.01 | 0.10 | 0.09 | 90 | 1012.1 |
| 20260507101556 | 49 | 0 | 0.0 | 0.0 | 0.02 | 0.10 | 0.09 | 90 | 1012.0 |
| 20260507101058 | 49 | 0 | 0.0 | 0.0 | 0.02 | 0.10 | 0.09 | 90 | 1011.9 |
| 20260507100601 | 49 | 0 | 0.0 | 0.0 | 0.02 | 0.10 | 0.09 | 89 | 1012.0 |
| 20260507100115 | 49 | 0 | 0.0 | 0.9 | 0.03 | 0.10 | 0.09 | 90 | 1012.0 |
| 20260507095558 | 49 | 0 | 0.0 | 0.9 | 0.03 | 0.10 | 0.09 | 90 | 1012.0 |
| 20260507095058 | 49 | 0 | 0.0 | 0.0 | 0.04 | 0.10 | 0.09 | 89 | 1011.6 |
| 20260507094606 | 49 | 0 | 0.0 | 0.0 | 0.03 | 0.09 | 0.08 | 89 | 1011.6 |
| 20260507094058 | 50 | 0 | 0.0 | 0.0 | 0.04 | 0.09 | 0.08 | 89 | 1011.7 |
| 20260507093559 | 50 | 0 | 0.0 | 0.0 | 0.04 | 0.09 | 0.08 | 89 | 1011.7 |
| 20260507093100 | 50 | 0 | 0.0 | 0.0 | 0.05 | 0.09 | 0.08 | 89 | 1011.7 |
| 20260507092558 | 50 | 0 | 0.0 | 1.7 | 0.05 | 0.09 | 0.08 | 89 | 1011.7 |
| 20260507092058 | 50 | 0 | 0.0 | 1.7 | 0.05 | 0.09 | 0.08 | 89 | 1011.6 |
| 20260507091625 | 50 | 0 | 0.0 | 1.7 | 0.05 | 0.08 | 0.07 | 88 | 1011.4 |
| 20260507091101 | 50 | 0 | 0.0 | 2.6 | 0.05 | 0.08 | 0.07 | 88 | 1011.2 |
| 20260507090559 | 51 | 0 | 0.0 | 2.6 | 0.05 | 0.08 | 0.07 | 88 | 1011.3 |
| 20260507090058 | 51 | 0 | 0.0 | 2.6 | 0.04 | 0.07 | 0.06 | 88 | 1011.5 |
| 20260507085559 | 51 | 0 | 0.0 | 3.5 | 0.05 | 0.07 | 0.06 | 88 | 1011.4 |
| 20260507085058 | 51 | 0 | 0.0 | 3.5 | 0.04 | 0.06 | 0.05 | 87 | 1011.5 |
| 20260507084610 | 52 | 271 | 0.0 | 2.6 | 0.04 | 0.06 | 0.05 | 87 | 1011.6 |
| 20260507084059 | 52 | 0 | 0.0 | 1.7 | 0.03 | 0.05 | 0.04 | 88 | 1011.5 |
| 20260507083558 | 52 | 0 | 0.0 | 1.7 | 0.03 | 0.05 | 0.04 | 87 | 1011.6 |
| 20260507083057 | 52 | 0 | 0.0 | 1.7 | 0.02 | 0.04 | 0.03 | 87 | 1011.3 |
| 20260507082558 | 53 | 0 | 0.0 | 0.9 | 0.02 | 0.04 | 0.03 | 86 | 1011.3 |
| 20260507082058 | 53 | 0 | 0.0 | 1.7 | 0.02 | 0.04 | 0.03 | 86 | 1011.1 |
| 20260507081601 | 53 | 0 | 0.0 | 3.5 | 0.01 | 0.03 | 0.02 | 86 | 1011.2 |
| 20260507081058 | 54 | 286 | 0.0 | 3.5 | 0.01 | 0.03 | 0.02 | 86 | 1011.6 |
| 20260507080559 | 54 | 0 | 0.0 | 2.6 | 0.01 | 0.03 | 0.02 | 86 | 1011.5 |
| 20260507080059 | 54 | 0 | 0.0 | 1.7 | 0.01 | 0.03 | 0.02 | 85 | 1011.3 |
| 20260507075558 | 54 | 0 | 0.0 | 2.6 | 0.00 | 0.02 | 0.01 | 85 | 1011.2 |
| 20260507075058 | 55 | 0 | 0.0 | 3.5 | 0.00 | 0.02 | 0.01 | 84 | 1011.1 |
| 20260507074603 | 55 | 0 | 0.0 | 3.5 | 0.00 | 0.02 | 0.01 | 84 | 1011.4 |
| 20260507074101 | 55 | 0 | 0.9 | 2.6 | 0.00 | 0.02 | 0.01 | 84 | 1011.4 |
| 20260507073602 | 56 | 0 | 0.0 | 1.7 | 0.00 | 0.02 | 0.01 | 83 | 1011.0 |
| 20260507073102 | 56 | 0 | 0.0 | 3.5 | 0.00 | 0.02 | 0.01 | 82 | 1010.6 |
| 20260507072558 | 56 | 0 | 0.0 | 3.5 | 0.00 | 0.02 | 0.01 | 82 | 1010.2 |
| 20260507072057 | 56 | 9 | 0.0 | 1.7 | 0.00 | 0.02 | 0.01 | 83 | 1010.3 |
| 20260507071601 | 56 | 0 | 0.0 | 2.6 | 0.00 | 0.02 | 0.01 | 82 | 1010.2 |
| 20260507071058 | 56 | 0 | 0.0 | 3.5 | 0.01 | 0.02 | 0.01 | 83 | 1010.0 |
| 20260507070601 | 56 | 0 | 0.0 | 3.5 | 0.01 | 0.02 | 0.01 | 82 | 1010.2 |
| 20260507070105 | 56 | 238 | 0.9 | 3.5 | 0.01 | 0.02 | 0.01 | 83 | 1010.2 |
| 20260507065601 | 56 | 0 | 0.0 | 2.6 | 0.01 | 0.02 | 0.01 | 83 | 1010.1 |
| 20260507065057 | 56 | 0 | 0.0 | 2.6 | 0.01 | 0.02 | 0.01 | 83 | 1010.1 |
| 20260507064557 | 57 | 293 | 0.0 | 4.3 | 0.01 | 0.02 | 0.01 | 83 | 1010.3 |
| 20260507064058 | 57 | 0 | 0.0 | 4.3 | 0.01 | 0.02 | 0.01 | 83 | 1010.4 |
| 20260507063557 | 57 | 236 | 0.0 | 4.3 | 0.01 | 0.02 | 0.01 | 83 | 1010.5 |
| 20260507063058 | 57 | 0 | 0.0 | 1.7 | 0.01 | 0.02 | 0.01 | 83 | 1010.4 |
| 20260507062558 | 57 | 0 | 0.0 | 1.7 | 0.01 | 0.02 | 0.01 | 85 | 1010.3 |
| 20260507062058 | 57 | 0 | 0.0 | 0.0 | 0.01 | 0.02 | 0.01 | 85 | 1010.0 |
| 20260507061558 | 57 | 0 | 0.0 | 0.0 | 0.01 | 0.02 | 0.01 | 85 | 1010.1 |
| 20260507061059 | 57 | 0 | 0.0 | 4.3 | 0.00 | 0.01 | 0.00 | 85 | 1010.0 |
| 20260507060602 | 57 | 0 | 0.0 | 4.3 | 0.00 | 0.01 | 0.00 | 85 | 1010.3 |
| 20260507060101 | 58 | 0 | 0.0 | 4.3 | 0.00 | 0.01 | 0.00 | 85 | 1010.4 |
| 20260507055558 | 58 | 0 | 0.0 | 3.5 | 0.00 | 0.01 | 0.00 | 86 | 1010.4 |
| 20260507055059 | 58 | 237 | 0.0 | 3.5 | 0.00 | 0.01 | 0.00 | 87 | 1010.4 |
| 20260507054559 | 58 | 0 | 0.0 | 2.6 | 0.00 | 0.01 | 0.00 | 88 | 1010.4 |
| 20260507054101 | 58 | 0 | 0.0 | 2.6 | 0.00 | 0.01 | 0.00 | 88 | 1010.5 |
| 20260507053559 | 59 | 0 | 0.0 | 1.7 | 0.00 | 0.01 | 0.00 | 90 | 1010.7 |
| 20260507053058 | 59 | 0 | 0.0 | 4.3 | 0.00 | 0.01 | 0.00 | 90 | 1010.6 |
| 20260507052559 | 59 | 0 | 0.0 | 4.3 | 0.00 | 0.01 | 0.00 | 90 | 1010.8 |
| 20260507052057 | 59 | 229 | 0.0 | 1.7 | 0.00 | 0.01 | 0.00 | 90 | 1010.6 |
| 20260507051559 | 59 | 0 | 0.0 | 1.7 | 0.00 | 0.01 | 0.00 | 90 | 1010.5 |
| 20260507051058 | 59 | 0 | 0.0 | 2.6 | 0.00 | 0.01 | 0.00 | 90 | 1010.4 |
| 20260507050601 | 59 | 0 | 0.0 | 2.6 | 0.00 | 0.01 | 0.00 | 90 | 1010.4 |
| 20260507050057 | 59 | 0 | 0.0 | 2.6 | 0.00 | 0.01 | 0.00 | 90 | 1010.4 |
| 20260507045557 | 59 | 0 | 0.0 | 3.5 | 0.00 | 0.01 | 0.00 | 90 | 1010.5 |
| 20260507045056 | 59 | 0 | 0.0 | 3.5 | 0.00 | 0.01 | 0.00 | 90 | 1010.5 |
| 20260507044609 | 59 | 240 | 0.0 | 1.7 | 0.00 | 0.01 | 0.00 | 90 | 1010.6 |
| 20260507044058 | 59 | 0 | 0.0 | 2.6 | 0.00 | 0.01 | 0.00 | 90 | 1010.5 |
| 20260507043558 | 59 | 0 | 0.0 | 2.6 | 0.00 | 0.01 | 0.00 | 90 | 1010.6 |
| 20260507043114 | 59 | 0 | 0.0 | 1.7 | 0.00 | 0.01 | 0.00 | 90 | 1010.2 |
| 20260507042559 | 59 | 240 | 0.0 | 2.6 | 0.00 | 0.01 | 0.00 | 90 | 1010.3 |
| 20260507042057 | 59 | 0 | 0.0 | 2.6 | 0.00 | 0.01 | 0.00 | 90 | 1010.2 |
| 20260507041559 | 59 | 241 | 0.0 | 1.7 | 0.00 | 0.01 | 0.00 | 90 | 1010.5 |
| 20260507041058 | 59 | 0 | 0.0 | 3.5 | 0.00 | 0.01 | 0.00 | 90 | 1010.4 |
| 20260507040558 | 59 | 0 | 0.0 | 6.1 | 0.00 | 0.01 | 0.00 | 89 | 1010.4 |
| 20260507040058 | 59 | 0 | 0.0 | 7.0 | 0.00 | 0.01 | 0.00 | 89 | 1010.5 |
| 20260507035557 | 59 | 240 | 0.9 | 7.0 | 0.00 | 0.01 | 0.01 | 89 | 1010.6 |
| 20260507035057 | 59 | 240 | 0.9 | 4.3 | 0.00 | 0.01 | 0.01 | 89 | 1010.7 |
| 20260507034559 | 59 | 245 | 0.9 | 6.1 | 0.00 | 0.01 | 0.01 | 89 | 1010.6 |
| 20260507034057 | 59 | 0 | 1.7 | 6.1 | 0.00 | 0.01 | 0.01 | 89 | 1010.6 |
| 20260507033559 | 59 | 246 | 1.7 | 5.2 | 0.00 | 0.01 | 0.01 | 89 | 1010.6 |
| 20260507033058 | 58 | 236 | 1.7 | 5.2 | 0.00 | 0.01 | 0.01 | 89 | 1010.4 |
| 20260507032559 | 58 | 212 | 0.9 | 7.0 | 0.00 | 0.01 | 0.01 | 89 | 1010.3 |
| 20260507032058 | 58 | 211 | 1.7 | 7.8 | 0.00 | 0.01 | 0.01 | 89 | 1010.3 |
| 20260507031555 | 58 | 189 | 0.9 | 8.7 | 0.00 | 0.01 | 0.01 | 89 | 1010.2 |
| 20260507031058 | 58 | 0 | 1.7 | 8.7 | 0.00 | 0.01 | 0.01 | 89 | 1010.1 |
| 20260507030557 | 58 | 221 | 1.7 | 6.1 | 0.00 | 0.01 | 0.01 | 89 | 1010.1 |
| 20260507030058 | 58 | 213 | 0.9 | 7.0 | 0.00 | 0.01 | 0.01 | 89 | 1010.1 |
| 20260507025557 | 58 | 211 | 1.7 | 7.0 | 0.00 | 0.01 | 0.01 | 89 | 1010.1 |
| 20260507025059 | 58 | 205 | 0.9 | 7.0 | 0.00 | 0.01 | 0.01 | 89 | 1010.0 |
| 20260507024557 | 58 | 243 | 1.7 | 6.1 | 0.00 | 0.01 | 0.01 | 89 | 1010.1 |
| 20260507024058 | 58 | 143 | 1.7 | 6.1 | 0.00 | 0.01 | 0.01 | 89 | 1010.0 |
| 20260507023559 | 58 | 152 | 0.9 | 4.3 | 0.00 | 0.01 | 0.01 | 89 | 1010.1 |
| 20260507023109 | 58 | 0 | 1.7 | 7.8 | 0.00 | 0.01 | 0.01 | 89 | 1010.1 |
| 20260507022559 | 58 | 192 | 1.7 | 7.8 | 0.00 | 0.01 | 0.01 | 89 | 1010.0 |
| 20260507022058 | 58 | 236 | 1.7 | 6.1 | 0.00 | 0.01 | 0.01 | 89 | 1010.0 |
| 20260507021557 | 58 | 177 | 3.5 | 6.1 | 0.00 | 0.01 | 0.01 | 89 | 1010.0 |
| 20260507021057 | 58 | 0 | 1.7 | 6.1 | 0.00 | 0.01 | 0.01 | 89 | 1010.1 |
| 20260507020558 | 58 | 239 | 0.9 | 6.1 | 0.00 | 0.01 | 0.01 | 89 | 1010.1 |
| 20260507020100 | 58 | 146 | 1.7 | 6.1 | 0.00 | 0.01 | 0.01 | 89 | 1010.2 |
| 20260507015557 | 58 | 296 | 1.7 | 6.1 | 0.00 | 0.01 | 0.01 | 89 | 1010.0 |
| 20260507015057 | 58 | 153 | 0.9 | 7.0 | 0.00 | 0.01 | 0.01 | 90 | 1010.2 |
| 20260507014557 | 58 | 236 | 1.7 | 7.0 | 0.00 | 0.01 | 0.01 | 90 | 1010.1 |
| 20260507014057 | 58 | 234 | 1.7 | 6.1 | 0.00 | 0.01 | 0.01 | 90 | 1010.3 |
| 20260507013600 | 58 | 0 | 3.5 | 6.1 | 0.00 | 0.01 | 0.01 | 90 | 1010.3 |
| 20260507013057 | 57 | 170 | 1.7 | 5.2 | 0.00 | 0.01 | 0.01 | 90 | 1010.4 |
| 20260507012558 | 57 | 169 | 1.7 | 5.2 | 0.00 | 0.01 | 0.01 | 90 | 1010.5 |
| 20260507012058 | 57 | 232 | 2.6 | 5.2 | 0.00 | 0.01 | 0.01 | 90 | 1010.6 |
| 20260507011601 | 57 | 167 | 2.6 | 6.1 | 0.00 | 0.01 | 0.01 | 90 | 1010.6 |
| 20260507011057 | 57 | 225 | 1.7 | 6.1 | 0.00 | 0.01 | 0.01 | 89 | 1010.8 |
| 20260507010558 | 57 | 154 | 1.7 | 8.7 | 0.00 | 0.01 | 0.01 | 90 | 1010.7 |
| 20260507010058 | 57 | 165 | 2.6 | 8.7 | 0.00 | 0.01 | 0.01 | 89 | 1010.6 |
| 20260507005559 | 57 | 153 | 3.5 | 7.0 | 0.00 | 0.01 | 0.01 | 89 | 1010.7 |
| 20260507005101 | 57 | 163 | 2.6 | 7.8 | 0.00 | 0.01 | 0.01 | 89 | 1010.7 |
| 20260507004557 | 57 | 186 | 3.5 | 7.8 | 0.00 | 0.01 | 0.01 | 89 | 1010.7 |
| 20260507004057 | 57 | 185 | 2.6 | 7.8 | 0.00 | 0.01 | 0.01 | 89 | 1010.7 |
| 20260507003558 | 57 | 160 | 2.6 | 10.4 | 0.00 | 0.01 | 0.01 | 89 | 1010.6 |
| 20260507003116 | 57 | 173 | 2.6 | 10.4 | 0.00 | 0.01 | 0.01 | 89 | 1010.6 |
| 20260507002557 | 57 | 179 | 3.5 | 10.4 | 0.00 | 0.01 | 0.01 | 89 | 1010.6 |
| 20260507002058 | 57 | 167 | 2.6 | 8.7 | 0.00 | 0.01 | 0.01 | 89 | 1010.5 |
| 20260507001615 | 57 | 173 | 3.5 | 8.7 | 0.00 | 0.01 | 0.01 | 89 | 1010.6 |
| 20260507001057 | 57 | 212 | 3.5 | 9.6 | 0.00 | 0.01 | 0.01 | 89 | 1010.3 |
| 20260507000601 | 57 | 181 | 3.5 | 9.6 | 0.00 | 0.01 | 0.01 | 89 | 1010.4 |
| 20260507000058 | 57 | 171 | 1.7 | 7.0 | 0.00 | 0.01 | 0.01 | 89 | 1010.4 |
| 20260506235559 | 57 | 150 | 1.7 | 7.8 | 0.00 | 0.01 | 0.01 | 89 | 1010.4 |
| 20260506235059 | 57 | 155 | 2.6 | 9.6 | 0.00 | 0.01 | 0.01 | 89 | 1010.3 |
| 20260506234558 | 57 | 167 | 3.5 | 9.6 | 0.00 | 0.01 | 0.01 | 88 | 1010.2 |
| 20260506234058 | 57 | 231 | 3.5 | 9.6 | 0.00 | 0.01 | 0.01 | 89 | 1010.3 |
| 20260506233602 | 57 | 156 | 3.5 | 10.4 | 0.00 | 0.01 | 0.01 | 88 | 1010.3 |
| 20260506233058 | 57 | 162 | 5.2 | 10.4 | 0.00 | 0.01 | 0.01 | 88 | 1010.2 |
| 20260506232557 | 57 | 173 | 2.6 | 9.6 | 0.00 | 0.01 | 0.01 | 88 | 1010.3 |
| 20260506232057 | 58 | 169 | 3.5 | 7.0 | 0.00 | 0.01 | 0.01 | 88 | 1010.3 |
| 20260506231606 | 58 | 175 | 3.5 | 9.6 | 0.00 | 0.01 | 0.01 | 88 | 1010.3 |
| 20260506231057 | 58 | 151 | 4.3 | 9.6 | 0.00 | 0.01 | 0.01 | 88 | 1010.6 |
| 20260506230557 | 58 | 167 | 2.6 | 9.6 | 0.00 | 0.01 | 0.01 | 88 | 1010.6 |
| 20260506230113 | 58 | 144 | 3.5 | 8.7 | 0.00 | 0.01 | 0.01 | 88 | 1010.6 |
| 20260506225558 | 58 | 175 | 1.7 | 7.0 | 0.00 | 0.01 | 0.01 | 88 | 1010.6 |
| 20260506225057 | 58 | 162 | 3.5 | 7.0 | 0.00 | 0.01 | 0.01 | 88 | 1010.6 |
| 20260506224558 | 58 | 184 | 2.6 | 7.8 | 0.00 | 0.01 | 0.01 | 88 | 1010.4 |
| 20260506224100 | 58 | 164 | 1.7 | 7.8 | 0.00 | 0.01 | 0.01 | 88 | 1010.4 |
| 20260506223600 | 58 | 151 | 2.6 | 7.8 | 0.00 | 0.01 | 0.01 | 88 | 1010.6 |
| 20260506223103 | 58 | 163 | 0.9 | 9.6 | 0.00 | 0.01 | 0.01 | 88 | 1010.7 |
| 20260506222600 | 58 | 172 | 3.5 | 9.6 | 0.00 | 0.01 | 0.01 | 88 | 1010.8 |
| 20260506222101 | 58 | 153 | 0.9 | 10.4 | 0.01 | 0.01 | 0.01 | 88 | 1010.9 |
| 20260506221614 | 59 | 198 | 3.5 | 10.4 | 0.01 | 0.01 | 0.01 | 88 | 1010.8 |
| 20260506221058 | 59 | 167 | 3.5 | 10.4 | 0.01 | 0.01 | 0.01 | 87 | 1010.9 |
| 20260506220600 | 59 | 161 | 3.5 | 8.7 | 0.01 | 0.01 | 0.01 | 87 | 1010.9 |
| 20260506220056 | 59 | 171 | 1.7 | 8.7 | 0.01 | 0.01 | 0.01 | 87 | 1010.9 |
| 20260506215602 | 59 | 249 | 1.7 | 10.4 | 0.01 | 0.01 | 0.01 | 87 | 1010.9 |
| 20260506215100 | 59 | 153 | 1.7 | 10.4 | 0.01 | 0.01 | 0.01 | 87 | 1011.0 |
| 20260506214559 | 59 | 169 | 1.7 | 11.3 | 0.01 | 0.01 | 0.01 | 87 | 1011.1 |
| 20260506214057 | 59 | 166 | 4.3 | 11.3 | 0.01 | 0.01 | 0.01 | 87 | 1011.1 |
| 20260506213556 | 59 | 201 | 0.9 | 6.1 | 0.01 | 0.01 | 0.01 | 87 | 1011.1 |
| 20260506213103 | 59 | 175 | 2.6 | 10.4 | 0.01 | 0.01 | 0.01 | 86 | 1011.1 |
| 20260506212557 | 60 | 166 | 4.3 | 10.4 | 0.01 | 0.01 | 0.01 | 86 | 1011.2 |
| 20260506212100 | 60 | 225 | 3.5 | 10.4 | 0.00 | 0.00 | 0.00 | 86 | 1011.1 |
| 20260506211557 | 60 | 159 | 3.5 | 7.0 | 0.00 | 0.00 | 0.00 | 86 | 1011.2 |
| 20260506211058 | 60 | 153 | 1.7 | 7.8 | 0.00 | 0.00 | 0.00 | 86 | 1011.2 |
| 20260506210558 | 60 | 181 | 3.5 | 7.8 | 0.00 | 0.00 | 0.00 | 85 | 1011.1 |
| 20260506210059 | 60 | 162 | 1.7 | 6.1 | 0.00 | 0.00 | 0.00 | 85 | 1011.2 |
| 20260506205600 | 61 | 166 | 2.6 | 6.1 | 0.00 | 0.00 | 0.00 | 84 | 1011.3 |
| 20260506205058 | 61 | 171 | 2.6 | 7.0 | 0.00 | 0.00 | 0.00 | 83 | 1011.3 |
| 20260506204558 | 61 | 181 | 2.6 | 10.4 | 0.00 | 0.00 | 0.00 | 83 | 1011.4 |
| 20260506204058 | 61 | 167 | 3.5 | 10.4 | 0.00 | 0.00 | 0.00 | 81 | 1011.4 |
| 20260506203557 | 62 | 161 | 3.5 | 7.8 | 0.00 | 0.00 | 0.00 | 80 | 1011.4 |
| 20260506203119 | 62 | 152 | 2.6 | 10.4 | 0.00 | 0.00 | 0.00 | 80 | 1011.2 |
| 20260506202557 | 62 | 155 | 2.6 | 10.4 | 0.00 | 0.00 | 0.00 | 80 | 1011.3 |
| 20260506202057 | 62 | 163 | 2.6 | 9.6 | 0.00 | 0.00 | 0.00 | 79 | 1011.4 |
| 20260506201556 | 63 | 177 | 4.3 | 10.4 | 0.00 | 0.00 | 0.00 | 77 | 1011.3 |
| 20260506201057 | 63 | 154 | 4.3 | 12.2 | 0.00 | 0.00 | 0.00 | 76 | 1011.3 |
| 20260506200601 | 63 | 163 | 2.6 | 13.0 | 0.00 | 0.00 | 0.00 | 75 | 1011.3 |
| 20260506200058 | 64 | 179 | 5.2 | 13.0 | 0.00 | 0.00 | 0.00 | 75 | 1011.3 |
| 20260506195557 | 64 | 182 | 3.5 | 8.7 | 0.00 | 0.00 | 0.00 | 74 | 1011.3 |
| 20260506195058 | 64 | 178 | 3.5 | 7.8 | 0.00 | 0.00 | 0.00 | 73 | 1011.5 |
| 20260506194600 | 64 | 146 | 2.6 | 7.8 | 0.00 | 0.00 | 0.00 | 73 | 1011.6 |
| 20260506194057 | 64 | 173 | 3.5 | 8.7 | 0.00 | 0.00 | 0.00 | 72 | 1011.5 |
| 20260506193557 | 64 | 157 | 3.5 | 8.7 | 0.00 | 0.00 | 0.00 | 71 | 1011.7 |
| 20260506193106 | 65 | 159 | 3.5 | 9.6 | 0.00 | 0.00 | 0.00 | 70 | 1011.7 |
| 20260506192557 | 65 | 185 | 3.5 | 9.6 | 0.00 | 0.00 | 0.00 | 69 | 1011.7 |
| 20260506192057 | 66 | 200 | 2.6 | 12.2 | 0.00 | 0.00 | 0.00 | 68 | 1011.7 |
| 20260506191556 | 66 | 175 | 3.5 | 18.2 | 0.00 | 0.00 | 0.00 | 66 | 1011.7 |
| 20260506191057 | 66 | 186 | 7.8 | 18.2 | 0.00 | 0.00 | 0.00 | 64 | 1011.7 |
| 20260506190556 | 67 | 178 | 2.6 | 13.0 | 0.00 | 0.00 | 0.00 | 64 | 1011.7 |
| 20260506190056 | 67 | 159 | 4.3 | 13.0 | 0.00 | 0.00 | 0.00 | 64 | 1011.6 |
| 20260506185557 | 67 | 167 | 4.3 | 13.9 | 0.00 | 0.00 | 0.00 | 64 | 1011.7 |
| 20260506185057 | 67 | 171 | 5.2 | 13.9 | 0.00 | 0.00 | 0.00 | 63 | 1011.5 |
| 20260506184554 | 67 | 207 | 4.3 | 14.8 | 0.00 | 0.00 | 0.00 | 63 | 1011.6 |
| 20260506184057 | 67 | 135 | 6.1 | 14.8 | 0.00 | 0.00 | 0.00 | 63 | 1011.6 |
| 20260506183601 | 67 | 198 | 4.3 | 13.9 | 0.00 | 0.00 | 0.00 | 64 | 1011.7 |
| 20260506183105 | 67 | 184 | 4.3 | 10.4 | 0.00 | 0.00 | 0.00 | 64 | 1011.8 |
| 20260506182557 | 67 | 178 | 2.6 | 13.9 | 0.00 | 0.00 | 0.00 | 64 | 1011.8 |
| 20260506182056 | 67 | 165 | 6.1 | 13.9 | 0.00 | 0.00 | 0.00 | 63 | 1011.8 |
| 20260506181604 | 67 | 152 | 6.1 | 12.2 | 0.00 | 0.00 | 0.00 | 63 | 1011.9 |
| 20260506181056 | 68 | 166 | 4.3 | 11.3 | 0.00 | 0.00 | 0.00 | 63 | 1011.9 |